Regional Weather Roundup
Issued by NWS

Home | Current Version | Previous Version | Graphics & Text | Print | Product List | Glossary On
Versions: 1 2 3 4 5 6 7 8 9 10 11 12 13 14 15 16 17 18 19 20 21 22 23 24 25 26 27 28 29 30 31 32 33 34 35 36 37 38 39 40 41 42 43 44 45 46 47 48 49 50
881
ASUS43 KOAX 231410
RWRNE

WEATHER ROUNDUP FOR NEBRASKA
NATIONAL WEATHER SERVICE OMAHA NE
900 AM CDT THU MAR 23 2017

NOTES: SATELLITE DATA IS BEING USED TO AUGMENT CLOUD COVER ABOVE
       12000 FEET.
       "FAIR" INDICATES FEW OR NO CLOUDS BELOW 12,000 FEET WITH NO
       SIGNIFICANT WEATHER AND/OR OBSTRUCTIONS TO VISIBILITY.

  * THESE STATIONS DO NOT REPORT WEATHER SUCH AS RAIN...SNOW OR FOG.

NEZ001>004-019>022-054>056-231500-
NEBRASKA PANHANDLE

CITY           SKY/WX    TMP DP  RH WIND       PRES   REMARKS
SCOTTSBLUFF    CLOUDY    37  33  85 E7        29.69S WCI  32
ALLIANCE       CLOUDY    38  36  92 S10       29.68S FOG     WCI  31
CHADRON        MOSUNNY   41  35  79 CALM      29.66S
KIMBALL        CLOUDY    42  40  91 W7        29.69S
SIDNEY         CLOUDY    34  32  92 SE6       29.70S FOG     WCI  29
$$

NEZ057>060-069>072-079>082-231500-
SOUTHWEST NEBRASKA

CITY           SKY/WX    TMP DP  RH WIND       PRES   REMARKS
NORTH PLATTE   CLOUDY    46  44  93 SE9       29.74F FOG
IMPERIAL       CLOUDY    45  43  93 SE9       29.71R FOG
LEXINGTON      CLOUDY    47  45  93 S17       29.77S FOG
MCCOOK         FOG       49  49 100 E8        29.75R VSB 1/2
OGALLALA       CLOUDY    45  42  90 SE10      29.72R
$$

NEZ005>010-023>029-035>040-094-231500-
NORTH CENTRAL NEBRASKA

CITY           SKY/WX    TMP DP  RH WIND       PRES   REMARKS
VALENTINE      CLOUDY    45  35  68 S15       29.71F
AINSWORTH        N/A    N/A N/A N/A MISG        N/A
BROKEN BOW     CLOUDY    47  32  56 S13G22    29.77F HAZE
O`NEILL        CLOUDY    47  36  65 S21G28    29.80S
ORD            CLOUDY    48  38  68 S15G28    29.79F
THEDFORD       CLOUDY    45  41  85 S14G20    29.73F
$$

NEZ041-046>049-061>064-073>077-083>087-231500-
SOUTH CENTRAL NEBRASKA

CITY           SKY/WX    TMP DP  RH WIND       PRES   REMARKS
GRAND ISLAND   CLOUDY    47  47 100 SE21G29   29.84F FOG
AURORA         CLOUDY    47  45  91 SE22G28   29.87R FOG
HASTINGS       CLOUDY    48  46  93 SE17G26   29.84S FOG
HEBRON         CLOUDY    51  44  75 SE20G28   29.90S
HOLDREGE       FOG       48  46  95 SE18      29.78F VSB 1
KEARNEY *      CLOUDY    48  45  87 SE17G26   29.81F
YORK           PTSUNNY   48  45  87 S20       29.88F
$$

NEZ011>018-030>034-042>045-231500-
NORTHEAST NEBRASKA

CITY           SKY/WX    TMP DP  RH WIND       PRES   REMARKS
NORFOLK        CLOUDY    45  30  55 SE20G28   29.86F
ALBION         CLOUDY    49  36  61 SE18      29.85F
BLAIR          CLOUDY    47  32  55 SE18G25   29.95F
FREMONT        CLOUDY    47  35  62 SE15G23   29.94S
TEKAMAH        CLOUDY    46  28  49 SE20      29.96F
WAYNE          CLOUDY    43  28  56 SE20G25   29.90R
$$

NEZ050>053-065>068-078-088>093-231500-
SOUTHEAST NEBRASKA

CITY           SKY/WX    TMP DP  RH WIND       PRES   REMARKS
LINCOLN        CLOUDY    51  41  68 S20G28    29.94F
OMAHA EPPLEY   CLOUDY    48  30  49 SE20      29.99S
BEATRICE       CLOUDY    52  38  59 SE14G23   29.93F
FALLS CITY     CLOUDY    51  32  48 SE15G25   30.01F
NEBRASKA CITY  CLOUDY    49  28  43 SE17      29.99S
PLATTSMOUTH    CLOUDY    48  31  51 SE14G21   29.97F
$$

NEZ044-045-051>053-067-231500-
OMAHA AREA

CITY           SKY/WX    TMP DP  RH WIND       PRES   REMARKS
OMAHA EPPLEY   CLOUDY    48  30  49 SE20      29.99S
BLAIR          CLOUDY    47  32  55 SE18G25   29.95F
FREMONT        CLOUDY    47  35  62 SE15G23   29.94S
MILLARD        CLOUDY    50  35  56 SE14      29.97F
OFFUTT AFB     CLOUDY    48  31  52 SE14      29.98F
PLATTSMOUTH    CLOUDY    48  31  51 SE14G21   29.97F
WAHOO          CLOUDY    49  38  68 SE22G30   29.94F
$$




USA.gov is the U.S. government's official web portal to all federal, state and local government web resources and services.